Overview Statistics Trail Chart Weather Telemetry Raw packets
 

This is the latest recevied weather packets stored in our database for station/object K7FLA. If no packets are shown the sender has not sent any weather packets the latest 10 day(s).

<< 34 35 36 37 38 39 40 >>
Time Temp. Humidity Pressure Rain* Wind** Luminosity Snow
1788442723 13.33° C 60% 1095.3 hPa 0 mm - 12 W/m² -
1788442419 13.33° C 60% 1095.2 hPa 0 mm - 9 W/m² -
1788442113 13.33° C 60% 1095.2 hPa 0 mm - 6 W/m² -
1788441809 13.33° C 62% 1095.4 hPa 0 mm - 3 W/m² -
1788441504 13.33° C 63% 1095.3 hPa 0 mm - 2 W/m² -
1788441204 13.33° C 66% 1095.3 hPa 0 mm - 1 W/m² -
1788440903 13.33° C 67% 1095.3 hPa 0 mm - 0 W/m² -
1788440598 13.33° C 65% 1095.4 hPa 0 mm - 0 W/m² -
1788440296 13.33° C 62% 1095.4 hPa 0 mm - 0 W/m² -
1788439992 13.33° C 61% 1095.4 hPa 0 mm - 0 W/m² -
1788439691 13.33° C 59% 1095.3 hPa 0 mm - 0 W/m² -
1788439387 13.33° C 58% 1095.5 hPa 0 mm - 0 W/m² -
1788439086 13.33° C 59% 1095.5 hPa 0 mm - 0 W/m² -
1788438785 13.33° C 63% 1095.4 hPa 0 mm - 0 W/m² -
1788438483 13.89° C 64% 1095.3 hPa 0 mm - 0 W/m² -
1788438178 13.89° C 62% 1095.3 hPa 0 mm - 0 W/m² -
1788437876 13.89° C 61% 1095.3 hPa 0 mm - 0 W/m² -
1788437573 13.89° C 66% 1095.2 hPa 0 mm - 0 W/m² -
1788437269 13.89° C 68% 1095.2 hPa 0 mm - 0 W/m² -
1788436967 13.89° C 67% 1095.3 hPa 0 mm - 0 W/m² -
1788436667 13.89° C 66% 1095.3 hPa 0 mm - 0 W/m² -
1788436362 13.89° C 67% 1095.5 hPa 0 mm - 0 W/m² -
1788436062 13.89° C 64% 1095.4 hPa 0 mm - 0 W/m² -
1788435758 13.89° C 63% 1095.4 hPa 0 mm - 0 W/m² -
1788435453 13.89° C 62% 1095.5 hPa 0 mm - 0 W/m² -

* Rain latest hour (hover to see other rain measurements)
** Current wind speed in m/s (hover to see current wind gust speed)